Regional Weather Roundup
Issued by NWS

Home | Current Version | Previous Version | Text Only | Print | Product List | Glossary Off
Versions: 1 2 3 4 5 6 7 8 9 10 11 12 13 14 15 16 17 18 19 20 21 22 23 24 25 26 27 28 29 30 31 32 33 34 35 36 37 38 39 40 41 42 43 44 45 46 47 48 49 50

000
ASUS43 KOAX 060202
RWRNE

WEATHER ROUNDUP FOR NEBRASKA
NATIONAL WEATHER SERVICE OMAHA NE
900 PM CDT SUN JUL 05 2015

NOTES: SATELLITE DATA IS BEING USED TO AUGMENT CLOUD COVER ABOVE
       12000 FEET.
       "FAIR" INDICATES FEW OR NO CLOUDS BELOW 12,000 FEET WITH NO
       SIGNIFICANT WEATHER AND/OR OBSTRUCTIONS TO VISIBILITY.

  * THESE STATIONS DO NOT REPORT WEATHER SUCH AS RAIN...SNOW OR FOG.

NEZ001>004-019>022-054>056-060300-
NEBRASKA PANHANDLE

CITY           SKY/WX    TMP DP  RH WIND       PRES   REMARKS
SCOTTSBLUFF    LGT RAIN  66  32  28 NW17G28   29.93S
ALLIANCE       LGT RAIN  65  62  90 NW20      29.93F
CHADRON        TSTM      62  61  96 N7        30.00R FOG
KIMBALL          N/A    N/A N/A N/A MISG        N/A
SIDNEY         CLOUDY    68  60  75 NW23G31   29.94S
$$

NEZ057>060-069>072-079>082-060300-
SOUTHWEST NEBRASKA

CITY           SKY/WX    TMP DP  RH WIND       PRES   REMARKS
NORTH PLATTE   CLOUDY    87  61  41 W23G30    29.76R
IMPERIAL       CLOUDY    77  60  55 N10       29.78R
LEXINGTON      CLOUDY    85  59  41 SW15G21   29.73S
MCCOOK         CLOUDY    77  65  66 E17       29.76F THUNDER
$$

NEZ005>010-023>029-035>040-094-060300-
NORTH CENTRAL NEBRASKA

CITY           SKY/WX    TMP DP  RH WIND       PRES   REMARKS
VALENTINE      TSTM      69  67  93 NW25G43   29.79R VSB 3/4
AINSWORTH      CLOUDY    81  71  71 E6        29.75R THUNDER
BROKEN BOW     CLOUDY    85  73  67 SE6       29.71S HX  91
ORD            CLOUDY    86  72  62 SE9       29.68F HX  92
$$

NEZ041-046>049-061>064-073>077-083>087-060300-
SOUTH CENTRAL NEBRASKA

CITY           SKY/WX    TMP DP  RH WIND       PRES   REMARKS
GRAND ISLAND   PTCLDY    87  68  52 S15       29.71F HX  90
AURORA         PTCLDY    85  69  59 SE15      29.72F
HASTINGS       PTCLDY    88  63  43 S10G20    29.73F
KEARNEY *      MOCLDY    88  63  42 S17G23    29.72F
$$

NEZ011>018-030>034-042>045-060300-
NORTHEAST NEBRASKA

CITY           SKY/WX    TMP DP  RH WIND       PRES   REMARKS
NORFOLK        PTCLDY    83  76  79 SE13      29.73F HX  91
BLAIR          PTCLDY    84  69  60 SE18      29.79F
COLUMBUS *     CLEAR     84  72  65 SE10      29.72F
FREMONT        MOCLDY    85  70  59 SE14G21   29.76F HX  90
TEKAMAH        MOCLDY    85  75  72 SE13      29.76F HX  93
$$

NEZ050>053-065>068-078-088>093-060300-
SOUTHEAST NEBRASKA

CITY           SKY/WX    TMP DP  RH WIND       PRES   REMARKS
LINCOLN        PTCLDY    86  71  60 SE15G25   29.76F HX  91
OMAHA EPPLEY   MOCLDY    85  75  72 SE18      29.78F HX  93
FALLS CITY     PTCLDY    84  75  74 SE12      29.83S HX  92
PLATTSMOUTH    PTCLDY    83  68  60 SE9       29.82S
$$

NEZ044-045-051>053-067-060300-
OMAHA AREA

CITY           SKY/WX    TMP DP  RH WIND       PRES   REMARKS
OMAHA EPPLEY   MOCLDY    85  75  72 SE18      29.78F HX  93
BLAIR          PTCLDY    84  69  60 SE18      29.79F
FREMONT        MOCLDY    85  70  59 SE14G21   29.76F HX  90
MILLARD        LGT RAIN  80  73  79 SE14G22   29.78F
OFFUTT AFB     PTCLDY    83  73  71 SE12      29.80S
PLATTSMOUTH    PTCLDY    83  68  60 SE9       29.82S
$$



USA.gov is the U.S. government's official web portal to all federal, state and local government web resources and services.